Time,TemperatureF,DewpointF,PressureIn,WindDirection,WindDirectionDegrees,WindSpeedMPH,WindSpeedGustMPH,Humidity,HourlyPrecipIn,Conditions,Clouds,dailyrainin,SoftwareType,DateUTC
2013-01-01 00:02:00,14.4,9.4,30.28,NW,325,4.0,5.0,80,0.00,,SKC,0.00,VWS V12.07,2013-01-01 08:02:00,
2013-01-01 00:12:00,14.6,9.6,30.28,NW,326,0.0,6.0,80,0.00,,SKC,0.00,VWS V12.07,2013-01-01 08:12:00,
2013-01-01 00:22:00,14.9,9.9,30.29,NW,325,2.0,6.0,80,0.00,,SKC,0.00,VWS V12.07,2013-01-01 08:22:00,
2013-01-01 00:32:00,14.9,9.9,30.29,NW,324,5.0,5.0,80,0.00,,SKC,0.00,VWS V12.07,2013-01-01 08:32:00,
2013-01-01 00:42:00,14.8,10.0,30.27,NW,322,2.0,5.0,81,0.00,,SKC,0.00,VWS V12.07,2013-01-01 08:42:00,
2013-01-01 00:52:00,15.4,10.6,30.28,NW,322,0.0,5.0,81,0.00,,SKC,0.00,VWS V12.07,2013-01-01 08:52:00,
2013-01-01 01:02:00,14.9,9.6,30.30,NW,322,0.0,3.0,79,0.00,,SKC,0.00,VWS V12.07,2013-01-01 09:02:00,
2013-01-01 01:12:00,14.6,9.6,30.28,NW,322,2.0,4.0,80,0.00,,SKC,0.00,VWS V12.07,2013-01-01 09:12:00,
2013-01-01 01:22:00,14.1,9.1,30.29,NW,322,4.0,5.0,80,0.00,,SKC,0.00,VWS V12.07,2013-01-01 09:22:00,
2013-01-01 01:32:00,13.2,8.2,30.30,NW,318,2.0,5.0,80,0.00,,SKC,0.00,VWS V12.07,2013-01-01 09:32:00,
2013-01-01 01:42:00,13.6,8.6,30.29,NW,317,1.0,6.0,80,0.00,,SKC,0.00,VWS V12.07,2013-01-01 09:42:00,
2013-01-01 01:52:00,13.8,8.8,30.30,NW,317,2.0,6.0,80,0.00,,SKC,0.00,VWS V12.07,2013-01-01 09:52:00,
2013-01-01 02:02:00,13.6,8.6,30.30,NW,317,3.0,4.0,80,0.00,,SKC,0.00,VWS V12.07,2013-01-01 10:02:00,
2013-01-01 02:12:00,13.5,8.5,30.30,WNW,293,6.0,7.0,80,0.00,,SKC,0.00,VWS V12.07,2013-01-01 10:12:00,
2013-01-01 02:22:00,13.3,8.0,30.31,West,269,2.0,7.0,79,0.00,,SKC,0.00,VWS V12.07,2013-01-01 10:22:00,
2013-01-01 02:32:00,13.3,8.6,30.31,West,269,1.0,4.0,81,0.00,,SKC,0.00,VWS V12.07,2013-01-01 10:32:00,
2013-01-01 02:42:00,13.3,8.3,30.31,West,269,2.0,4.0,80,0.00,,SKC,0.00,VWS V12.07,2013-01-01 10:42:00,
2013-01-01 02:52:00,12.8,7.5,30.31,West,269,3.0,4.0,79,0.00,,SKC,0.00,VWS V12.07,2013-01-01 10:52:00,
2013-01-01 03:02:00,12.8,7.5,30.31,West,270,1.0,3.0,79,0.00,,SKC,0.00,VWS V12.07,2013-01-01 11:02:00,
2013-01-01 03:13:00,12.8,7.8,30.32,West,271,4.0,5.0,80,0.00,,SKC,0.00,VWS V12.07,2013-01-01 11:13:00,
2013-01-01 03:22:00,13.1,8.1,30.32,West,271,4.0,5.0,80,0.00,,SKC,0.00,VWS V12.07,2013-01-01 11:22:00,
2013-01-01 03:32:00,13.8,8.8,30.32,West,270,3.0,4.0,80,0.00,,SKC,0.00,VWS V12.07,2013-01-01 11:32:00,
2013-01-01 03:42:00,14.1,9.1,30.32,West,271,0.0,4.0,80,0.00,,SKC,0.00,VWS V12.07,2013-01-01 11:42:00,
2013-01-01 03:52:00,14.4,9.4,30.32,West,270,0.0,4.0,80,0.00,,SKC,0.00,VWS V12.07,2013-01-01 11:52:00,
2013-01-01 04:02:00,14.4,9.4,30.31,West,270,3.0,3.0,80,0.00,,SKC,0.00,VWS V12.07,2013-01-01 12:02:00,
2013-01-01 04:12:00,14.5,9.5,30.34,West,270,0.0,5.0,80,0.00,,SKC,0.00,VWS V12.07,2013-01-01 12:12:00,
2013-01-01 04:22:00,14.3,9.3,30.33,West,270,0.0,5.0,80,0.00,,SKC,0.00,VWS V12.07,2013-01-01 12:22:00,
2013-01-01 04:32:00,14.4,9.4,30.32,WSW,252,3.0,7.0,80,0.00,,SKC,0.00,VWS V12.07,2013-01-01 12:32:00,
2013-01-01 04:42:00,14.6,9.6,30.33,SW,235,2.0,7.0,80,0.00,,SKC,0.00,VWS V12.07,2013-01-01 12:42:00,
2013-01-01 04:52:00,14.9,10.1,30.33,SW,235,0.0,7.0,81,0.00,,SKC,0.00,VWS V12.07,2013-01-01 12:52:00,
2013-01-01 05:02:00,15.0,10.0,30.34,SW,235,5.0,5.0,80,0.00,,SKC,0.00,VWS V12.07,2013-01-01 13:02:00,
2013-01-01 05:12:00,15.2,10.4,30.33,WSW,246,3.0,7.0,81,0.00,,SKC,0.00,VWS V12.07,2013-01-01 13:12:00,
2013-01-01 05:22:00,15.2,10.1,30.34,WSW,252,0.0,7.0,80,0.00,,SKC,0.00,VWS V12.07,2013-01-01 13:22:00,
2013-01-01 05:32:00,15.2,10.1,30.34,WSW,251,2.0,3.0,80,0.00,,SKC,0.00,VWS V12.07,2013-01-01 13:32:00,
2013-01-01 05:42:00,15.3,10.2,30.33,WSW,251,2.0,5.0,80,0.00,,SKC,0.00,VWS V12.07,2013-01-01 13:42:00,
2013-01-01 05:52:00,15.1,10.1,30.32,WSW,252,0.0,5.0,80,0.00,,SKC,0.00,VWS V12.07,2013-01-01 13:52:00,
2013-01-01 06:02:00,14.9,9.9,30.33,WSW,252,3.0,3.0,80,0.00,,SKC,0.00,VWS V12.07,2013-01-01 14:02:00,
2013-01-01 06:12:00,14.9,9.9,30.33,WSW,251,2.0,4.0,80,0.00,,SKC,0.00,VWS V12.07,2013-01-01 14:12:00,
2013-01-01 06:22:00,14.8,9.8,30.33,WSW,251,0.0,5.0,80,0.00,,SKC,0.00,VWS V12.07,2013-01-01 14:22:00,
2013-01-01 06:32:00,14.6,9.6,30.34,WSW,251,3.0,5.0,80,0.00,,SKC,0.00,VWS V12.07,2013-01-01 14:32:00,
2013-01-01 06:42:00,14.3,9.3,30.34,WSW,251,1.0,5.0,80,0.00,,SKC,0.00,VWS V12.07,2013-01-01 14:42:00,
2013-01-01 06:52:00,14.1,9.1,30.34,WSW,247,3.0,5.0,80,0.00,,SKC,0.00,VWS V12.07,2013-01-01 14:52:00,
2013-01-01 07:02:00,13.9,8.9,30.34,WSW,246,0.0,5.0,80,0.00,,SKC,0.00,VWS V12.07,2013-01-01 15:02:00,
2013-01-01 07:12:00,13.6,8.6,30.34,SSW,209,3.0,7.0,80,0.00,,SKC,0.00,VWS V12.07,2013-01-01 15:12:00,
2013-01-01 07:22:00,13.5,8.5,30.34,SSW,203,4.0,7.0,80,0.00,,SKC,0.00,VWS V12.07,2013-01-01 15:22:00,
2013-01-01 07:32:00,12.8,7.5,30.35,SSW,203,3.0,5.0,79,0.00,,SKC,0.00,VWS V12.07,2013-01-01 15:32:00,
2013-01-01 07:42:00,12.3,7.0,30.35,SSW,202,0.0,7.0,79,0.00,,SKC,0.00,VWS V12.07,2013-01-01 15:42:00,
2013-01-01 07:52:00,11.4,6.2,30.35,SSW,198,4.0,9.0,79,0.00,,SKC,0.00,VWS V12.07,2013-01-01 15:52:00,
2013-01-01 08:02:00,11.3,6.1,30.35,SSW,205,4.0,7.0,79,0.00,,SKC,0.00,VWS V12.07,2013-01-01 16:02:00,
2013-01-01 08:12:00,11.5,6.3,30.34,SW,217,5.0,10.0,79,0.00,,SKC,0.00,VWS V12.07,2013-01-01 16:12:00,
2013-01-01 08:22:00,11.8,6.6,30.35,South,188,2.0,11.0,79,0.00,,SKC,0.00,VWS V12.07,2013-01-01 16:22:00,
2013-01-01 08:32:00,12.0,6.8,30.35,SSW,204,4.0,9.0,79,0.00,,SKC,0.00,VWS V12.07,2013-01-01 16:32:00,
2013-01-01 08:42:00,12.3,7.0,30.35,SSW,202,6.0,10.0,79,0.00,,SKC,0.00,VWS V12.07,2013-01-01 16:42:00,
2013-01-01 08:52:00,12.4,7.1,30.34,SSW,198,9.0,12.0,79,0.00,,SKC,0.00,VWS V12.07,2013-01-01 16:52:00,
2013-01-01 09:02:00,12.4,7.1,30.35,SSW,212,5.0,9.0,79,0.00,,SKC,0.00,VWS V12.07,2013-01-01 17:02:00,
2013-01-01 09:12:00,12.9,7.6,30.34,SSW,207,0.0,12.0,79,0.00,,SKC,0.00,VWS V12.07,2013-01-01 17:12:00,
2013-01-01 09:22:00,13.0,7.7,30.36,SW,221,3.0,14.0,79,0.00,,SKC,0.00,VWS V12.07,2013-01-01 17:22:00,
2013-01-01 09:32:00,13.6,8.6,30.36,SW,218,4.0,10.0,80,0.00,,SKC,0.00,VWS V12.07,2013-01-01 17:32:00,
2013-01-01 09:42:00,14.0,9.0,30.35,SW,225,8.0,14.0,80,0.00,,SKC,0.00,VWS V12.07,2013-01-01 17:42:00,
2013-01-01 09:52:00,14.5,9.5,30.35,SSW,210,9.0,14.0,80,0.00,,SKC,0.00,VWS V12.07,2013-01-01 17:52:00,
2013-01-01 10:02:00,16.0,10.9,30.36,South,187,5.0,10.0,80,0.00,,SKC,0.00,VWS V12.07,2013-01-01 18:02:00,
2013-01-01 10:12:00,16.9,11.8,30.38,SSW,204,9.0,12.0,80,0.00,,SKC,0.00,VWS V12.07,2013-01-01 18:12:00,
2013-01-01 10:22:00,16.9,11.8,30.37,SSW,202,7.0,16.0,80,0.00,,SKC,0.00,VWS V12.07,2013-01-01 18:22:00,
2013-01-01 10:32:00,17.0,11.9,30.38,SSW,195,3.0,10.0,80,0.00,,SKC,0.00,VWS V12.07,2013-01-01 18:32:00,
2013-01-01 10:42:00,17.0,11.9,30.39,SSW,203,5.0,10.0,80,0.00,,SKC,0.00,VWS V12.07,2013-01-01 18:42:00,
2013-01-01 10:52:00,17.3,11.9,30.39,WSW,237,9.0,12.0,79,0.00,,SKC,0.00,VWS V12.07,2013-01-01 18:52:00,
2013-01-01 11:02:00,17.4,12.0,30.39,SW,235,7.0,10.0,79,0.00,,SKC,0.00,VWS V12.07,2013-01-01 19:02:00,
2013-01-01 11:12:00,18.4,12.7,30.38,SW,216,9.0,12.0,78,0.00,,SKC,0.00,VWS V12.07,2013-01-01 19:12:00,
2013-01-01 11:22:00,19.7,13.4,30.38,SSW,205,9.0,12.0,76,0.00,,SKC,0.00,VWS V12.07,2013-01-01 19:22:00,
2013-01-01 11:32:00,20.4,13.4,30.37,SW,217,9.0,12.0,74,0.00,,SKC,0.00,VWS V12.07,2013-01-01 19:32:00,
2013-01-01 11:42:00,21.3,13.7,30.36,SSW,212,10.0,12.0,72,0.00,,SKC,0.00,VWS V12.07,2013-01-01 19:42:00,
2013-01-01 11:52:00,22.1,14.1,30.36,SSW,209,8.0,12.0,71,0.00,,SKC,0.00,VWS V12.07,2013-01-01 19:52:00,
2013-01-01 12:02:00,22.7,14.1,30.34,SSW,211,4.0,7.0,69,0.00,,SKC,0.00,VWS V12.07,2013-01-01 20:02:00,
2013-01-01 12:12:00,23.3,14.6,30.34,SSW,211,5.0,7.0,69,0.00,,SKC,0.00,VWS V12.07,2013-01-01 20:12:00,
2013-01-01 12:22:00,24.8,15.8,30.33,SSW,211,3.0,7.0,68,0.00,,SKC,0.00,VWS V12.07,2013-01-01 20:22:00,
2013-01-01 12:32:00,26.8,16.6,30.33,SSW,211,2.0,5.0,65,0.00,,SKC,0.00,VWS V12.07,2013-01-01 20:32:00,
2013-01-01 12:42:00,27.4,16.5,30.33,SSW,211,0.0,6.0,63,0.00,,SKC,0.00,VWS V12.07,2013-01-01 20:42:00,
2013-01-01 12:52:00,28.0,16.7,30.32,SSW,211,4.0,7.0,62,0.00,,SKC,0.00,VWS V12.07,2013-01-01 20:52:00,
2013-01-01 13:02:00,28.6,16.9,30.32,SSW,211,3.0,7.0,61,0.00,,SKC,0.00,VWS V12.07,2013-01-01 21:02:00,
2013-01-01 13:12:00,30.2,18.0,30.31,SSW,208,0.0,10.0,60,0.00,,SKC,0.00,VWS V12.07,2013-01-01 21:12:00,
2013-01-01 13:22:00,31.3,18.2,30.30,South,190,7.0,10.0,58,0.00,,SKC,0.00,VWS V12.07,2013-01-01 21:22:00,
2013-01-01 13:32:00,31.7,17.8,30.30,South,189,3.0,7.0,56,0.00,,SKC,0.00,VWS V12.07,2013-01-01 21:32:00,
2013-01-01 13:42:00,32.8,18.0,30.30,South,188,7.0,9.0,54,0.00,,SKC,0.00,VWS V12.07,2013-01-01 21:42:00,
2013-01-01 13:52:00,32.9,17.2,30.29,South,188,2.0,12.0,52,0.00,,SKC,0.00,VWS V12.07,2013-01-01 21:52:00,
2013-01-01 14:02:00,33.5,17.8,30.30,South,186,9.0,12.0,52,0.00,,SKC,0.00,VWS V12.07,2013-01-01 22:02:00,
2013-01-01 14:12:00,33.8,17.1,30.28,South,184,5.0,12.0,50,0.00,,SKC,0.00,VWS V12.07,2013-01-01 22:12:00,
2013-01-01 14:22:00,34.1,17.4,30.30,South,184,1.0,12.0,50,0.00,,SKC,0.00,VWS V12.07,2013-01-01 22:22:00,
2013-01-01 14:32:00,34.4,18.2,30.30,South,184,1.0,4.0,51,0.00,,SKC,0.00,VWS V12.07,2013-01-01 22:32:00,
2013-01-01 14:42:00,33.5,18.6,30.29,South,184,3.0,7.0,54,0.00,,SKC,0.00,VWS V12.07,2013-01-01 22:42:00,
2013-01-01 14:52:00,32.7,16.1,30.30,South,181,5.0,8.0,50,0.00,,SKC,0.00,VWS V12.07,2013-01-01 22:52:00,
2013-01-01 15:02:00,31.6,16.0,30.30,NNE,22,4.0,9.0,52,0.00,,SKC,0.00,VWS V12.07,2013-01-01 23:02:00,
2013-01-01 15:12:00,29.9,15.7,30.31,NNW,344,7.0,9.0,55,0.00,,SKC,0.00,VWS V12.07,2013-01-01 23:12:00,
2013-01-01 15:22:00,28.0,14.3,30.30,NNW,340,3.0,9.0,56,0.00,,SKC,0.00,VWS V12.07,2013-01-01 23:22:00,
2013-01-01 15:32:00,27.2,14.4,30.30,NNW,341,2.0,7.0,58,0.00,,SKC,0.00,VWS V12.07,2013-01-01 23:32:00,
2013-01-01 15:42:00,27.0,14.6,30.30,NNW,341,2.0,7.0,59,0.00,,SKC,0.00,VWS V12.07,2013-01-01 23:42:00,
2013-01-01 15:52:00,27.0,14.6,30.30,NNW,341,0.0,7.0,59,0.00,,SKC,0.00,VWS V12.07,2013-01-01 23:52:00,
2013-01-01 16:02:00,26.9,14.5,30.32,NNW,341,0.0,5.0,59,0.00,,SKC,0.00,VWS V12.07,2013-01-02 00:02:00,
2013-01-01 16:12:00,26.4,14.0,30.31,NNW,341,0.0,5.0,59,0.00,,SKC,0.00,VWS V12.07,2013-01-02 00:12:00,
2013-01-01 16:22:00,25.7,14.1,30.32,NNW,345,1.0,6.0,61,0.00,,SKC,0.00,VWS V12.07,2013-01-02 00:22:00,
2013-01-01 16:32:00,25.1,13.2,30.32,NNW,345,2.0,5.0,60,0.00,,SKC,0.00,VWS V12.07,2013-01-02 00:32:00,
2013-01-01 16:42:00,24.2,12.7,30.32,NNW,344,5.0,6.0,61,0.00,,SKC,0.00,VWS V12.07,2013-01-02 00:42:00,
2013-01-01 16:52:00,23.6,12.9,30.32,NNW,341,3.0,8.0,63,0.00,,SKC,0.00,VWS V12.07,2013-01-02 00:52:00,
2013-01-01 17:02:00,23.0,13.0,30.33,NNW,341,5.0,7.0,65,0.00,,SKC,0.00,VWS V12.07,2013-01-02 01:02:00,
2013-01-01 17:12:00,22.2,12.9,30.32,NNW,345,6.0,8.0,67,0.00,,SKC,0.00,VWS V12.07,2013-01-02 01:12:00,
2013-01-01 17:22:00,21.6,12.7,30.34,NNW,347,5.0,9.0,68,0.00,,SKC,0.00,VWS V12.07,2013-01-02 01:22:00,
2013-01-01 17:32:00,21.2,12.6,30.35,NNW,347,5.0,6.0,69,0.00,,SKC,0.00,VWS V12.07,2013-01-02 01:32:00,
2013-01-01 17:43:00,20.5,12.3,30.35,North,349,7.0,9.0,70,0.00,,SKC,0.00,VWS V12.07,2013-01-02 01:43:00,
2013-01-01 17:52:00,19.8,11.9,30.35,NNW,346,4.0,9.0,71,0.00,,SKC,0.00,VWS V12.07,2013-01-02 01:52:00,
2013-01-01 18:02:00,19.2,11.4,30.35,NNW,343,3.0,5.0,71,0.00,,SKC,0.00,VWS V12.07,2013-01-02 02:02:00,
2013-01-01 18:12:00,18.6,11.4,30.36,NNW,343,5.0,7.0,73,0.00,,SKC,0.00,VWS V12.07,2013-01-02 02:12:00,
2013-01-01 18:22:00,17.8,10.9,30.35,NNW,344,1.0,24.0,74,0.00,,SKC,0.00,VWS V12.07,2013-01-02 02:22:00,
2013-01-01 18:32:00,17.5,10.6,30.35,NNW,344,2.0,3.0,74,0.00,,SKC,0.00,VWS V12.07,2013-01-02 02:32:00,
2013-01-01 18:42:00,17.0,10.8,30.35,NNW,344,0.0,4.0,76,0.00,,SKC,0.00,VWS V12.07,2013-01-02 02:42:00,
2013-01-01 18:52:00,16.7,10.8,30.36,NNW,343,2.0,6.0,77,0.00,,SKC,0.00,VWS V12.07,2013-01-02 02:52:00,
2013-01-01 19:02:00,16.2,10.3,30.36,NNW,344,1.0,4.0,77,0.00,,SKC,0.00,VWS V12.07,2013-01-02 03:02:00,
2013-01-01 19:12:00,15.7,9.8,30.35,NNW,343,1.0,4.0,77,0.00,,SKC,0.00,VWS V12.07,2013-01-02 03:12:00,
2013-01-01 19:22:00,15.2,9.6,30.35,NNW,343,3.0,5.0,78,0.00,,SKC,0.00,VWS V12.07,2013-01-02 03:22:00,
2013-01-01 19:32:00,14.7,9.1,30.35,NNW,343,2.0,3.0,78,0.00,,SKC,0.00,VWS V12.07,2013-01-02 03:32:00,
2013-01-01 19:42:00,14.6,9.0,30.36,NNW,343,0.0,3.0,78,0.00,,SKC,0.00,VWS V12.07,2013-01-02 03:42:00,
2013-01-01 19:52:00,14.4,9.1,30.35,NNW,343,0.0,3.0,79,0.00,,SKC,0.00,VWS V12.07,2013-01-02 03:52:00,
2013-01-01 20:02:00,14.4,9.4,30.36,NNW,343,0.0,0.0,80,0.00,,SKC,0.00,VWS V12.07,2013-01-02 04:02:00,
2013-01-01 20:12:00,14.7,9.4,30.36,NNW,343,2.0,3.0,79,0.00,,SKC,0.00,VWS V12.07,2013-01-02 04:12:00,
2013-01-01 20:22:00,15.0,10.0,30.34,NNW,342,4.0,5.0,80,0.00,,SKC,0.00,VWS V12.07,2013-01-02 04:22:00,
2013-01-01 20:32:00,14.9,9.9,30.36,NNW,338,0.0,3.0,80,0.00,,SKC,0.00,VWS V12.07,2013-01-02 04:32:00,
2013-01-01 20:42:00,14.7,9.7,30.36,NNW,338,0.0,5.0,80,0.00,,SKC,0.00,VWS V12.07,2013-01-02 04:42:00,
2013-01-01 20:52:00,14.5,9.2,30.35,NNW,338,3.0,5.0,79,0.00,,SKC,0.00,VWS V12.07,2013-01-02 04:52:00,
2013-01-01 21:02:00,13.9,8.6,30.35,NNW,338,0.0,0.0,79,0.00,,SKC,0.00,VWS V12.07,2013-01-02 05:02:00,
2013-01-01 21:12:00,12.8,7.5,30.34,NNW,338,0.0,0.0,79,0.00,,SKC,0.00,VWS V12.07,2013-01-02 05:12:00,
2013-01-01 21:22:00,12.5,7.2,30.37,NNW,338,0.0,2.0,79,0.00,,SKC,0.00,VWS V12.07,2013-01-02 05:22:00,
2013-01-01 21:32:00,11.4,6.2,30.36,NNW,338,0.0,0.0,79,0.00,,SKC,0.00,VWS V12.07,2013-01-02 05:32:00,
2013-01-01 21:42:00,10.8,5.3,30.35,NNW,338,0.0,3.0,78,0.00,,SKC,0.00,VWS V12.07,2013-01-02 05:42:00,
2013-01-01 21:52:00,10.8,5.3,30.36,NNW,338,0.0,3.0,78,0.00,,SKC,0.00,VWS V12.07,2013-01-02 05:52:00,
2013-01-01 22:02:00,10.7,5.2,30.36,NNW,338,0.0,0.0,78,0.00,,SKC,0.00,VWS V12.07,2013-01-02 06:02:00,
2013-01-01 22:22:00,10.8,5.3,30.37,NNW,338,0.0,0.0,78,0.00,,SKC,0.00,VWS V12.07,2013-01-02 06:22:00,
2013-01-01 22:32:00,-30.2,-30.2,30.36,North,0,0.0,0.0,100,0.00,,SKC,0.00,VWS V12.07,2013-01-02 06:32:00,
2013-01-01 22:42:00,-30.2,-30.2,30.35,North,0,0.0,0.0,100,0.00,,SKC,0.00,VWS V12.07,2013-01-02 06:42:00,
2013-01-01 22:52:00,-30.2,-30.2,30.35,North,0,0.0,0.0,100,0.00,,SKC,0.00,VWS V12.07,2013-01-02 06:52:00,
2013-01-01 23:03:00,-30.2,-30.2,30.36,North,0,0.0,0.0,100,0.00,,SKC,0.00,VWS V12.07,2013-01-02 07:03:00,
2013-01-01 23:12:00,-30.2,-30.2,30.36,North,0,0.0,0.0,100,0.00,,SKC,0.00,VWS V12.07,2013-01-02 07:12:00,
2013-01-01 23:22:00,-30.2,-30.2,30.36,North,0,0.0,0.0,100,0.00,,SKC,0.00,VWS V12.07,2013-01-02 07:22:00,
2013-01-01 23:32:00,-30.2,-30.2,30.35,North,359,0.0,0.0,100,0.00,,SKC,0.00,VWS V12.07,2013-01-02 07:32:00,
2013-01-01 23:42:00,-30.2,-30.2,30.36,North,0,0.0,0.0,100,0.00,,SKC,0.00,VWS V12.07,2013-01-02 07:42:00,
2013-01-01 23:52:00,-30.2,-30.2,30.37,North,0,0.0,0.0,100,0.00,,SKC,0.00,VWS V12.07,2013-01-02 07:52:00,